Left ArrowRight Arrow

Hourly Observations for July 3, 2020

Temp ( °F °C ) Dew Point ( °F °C ) Humidity (%) Winds ( mph kmh ) Pressure ( in mb ) Visibility ( mi km ) Precip ( " mm )
12:51 am 00:51 Clear 77 25 66 18.9 69 69 NNW 3 6 29.79 1009 10 16 0.00 0.00
1:51 am 01:51 Clear 79 26.1 66 18.9 65 65 Calm 29.78 1009 10 16 0.00 0.00
2:51 am 02:51 Clear 77 25 67 19.4 71 71 Calm 29.78 1008 10 16 0.00 0.00
3:51 am 03:51 Clear 75 23.9 67 19.4 76 76 Calm 29.78 1008 10 16 0.00 0.00
4:51 am 04:51 Mostly Cloudy 76 24.4 67 19.4 74 74 E 3 6 29.79 1009 10 16 0.00 0.00
5:51 am 05:51 Sunny 77 25 64 17.8 64 64 NNE 5 7 29.80 1009 10 16 0.00 0.00
6:51 am 06:51 Sunny 77 25 64 17.8 64 64 N 6 9 29.81 1010 10 16 0.00 0.00
7:51 am 07:51 Mostly Cloudy 80 26.7 65 18.3 60 60 N 5 7 29.82 1010 10 16 0.00 0.00
8:51 am 08:51 Partly Cloudy 81 27.2 64 17.8 57 57 VRB 3 6 29.83 1010 10 16 0.00 0.00
9:51 am 09:51 Sunny 85 29.4 66 18.9 53 53 NW 9 15 29.83 1010 10 16 0.00 0.00
10:51 am 10:51 Sunny 86 30 65 18.3 49 49 NNE 8 13 29.83 1010 10 16 0.00 0.00
11:51 am 11:51 Mostly Cloudy 85 29.4 65 18.3 51 51 N 5 7 29.83 1010 10 16 0.00 0.00
12:51 pm 12:51 Mostly Cloudy 86 30 66 18.9 51 51 VRB 3 6 29.83 1010 10 16 0.00 0.00
1:51 pm 13:51 Mostly Cloudy 87 30.6 65 18.3 48 48 Calm 29.81 1010 10 16 0.00 0.00
2:51 pm 14:51 Mostly Cloudy 89 31.7 67 19.4 48 48 VRB 6 9 29.80 1009 10 16 0.00 0.00
3:51 pm 15:51 Sunny 91 32.8 67 19.4 45 45 VRB 6 9 29.78 1009 10 16 0.00 0.00
4:40 pm 16:40 Mostly Cloudy with Nearby Thunderstorms 91 33 64 18 41 41 VRB 5 7 29.77 1008 10 16 0.00 0.00
4:51 pm 16:51 Mostly Cloudy with Nearby Thunderstorms 91 32.8 65 18.3 42 42 NE 13 20 29.77 1008 10 16 0.00 0.00
5:38 pm 17:38 Mostly Cloudy 84 28.9 69 20.6 61 61 VRB 7 11 29.78 1008 10 16 0.00 0.00
5:51 pm 17:51 Mostly Cloudy 85 29.4 68 20 57 57 E 5 7 29.78 1009 10 16 0.00 0.00
6:51 pm 18:51 Mostly Cloudy 84 28.9 69 20.6 61 61 SSE 6 9 29.79 1009 10 16 0.00 0.00
7:38 pm 19:38 Mostly Cloudy with Nearby Thunderstorms 80 26.7 70 21.1 71 71 ENE 7 11 29.83 1010 10 16 0.00 0.00
7:51 pm 19:51 Mostly Cloudy with Nearby Thunderstorms 78 25.6 71 21.7 79 79 NE 10 17 29.83 1010 10 16 0.00 0.00
8:06 pm 20:06 Cloudy with Thunderstorms 77 25 71 21.7 82 82 E 6 9 29.85 1011 10 16 0.00 0.00
8:36 pm 20:36 Mostly Cloudy with Nearby Thunderstorms 75 23.9 71 21.7 88 88 ESE 7 11 29.85 1011 4 6 0.02 0.51
8:51 pm 20:51 Mostly Cloudy with Rain 74 23.3 71 21.7 91 91 ESE 6 9 29.84 1011 4 6 0.02 0.51
9:51 pm 21:51 Mostly Clear 74 23.3 71 21.7 91 91 Calm 29.86 1011 10 16 0.00 0.00
10:51 pm 22:51 Mostly Clear 73 22.8 71 21.7 94 94 NE 5 7 29.87 1012 10 16 0.00 0.00
11:07 pm 23:07 Cloudy 73 22.8 70 21.1 90 90 ENE 7 11 29.87 1011 7 11 0.00 0.00
11:51 pm 23:51 Cloudy 72 22.2 69 20.6 91 91 E 7 11 29.87 1011 7 11 0.00 0.00

Powered by Vaisala Xweather